Tracking 35331 objects as of 16-Sep-2026
HD Live streaming from Space Station
objects crossing your sky now

FLOCK 4S 29


FLOCK 4S 29 is no longer on orbit
FLOCK 4S 29 is classified as:


NORAD ID: 47520
Int'l Code: 2021-006DL
Launch date: January 24, 2021
Source: United States (US)
Launch site: AIR FORCE EASTERN TEST RANGE (AFETR)
Decay date: 2024-03-27
Your satellite tracking list
Your tracking list is empty




NASA's NSSDC Master Catalog

Two Line Element Set (TLE):
1 47520U 21006DL  24087.21607517  .16149944  25228-5  47199-3 0  9992
2 47520  97.3002 155.6485 0010606 262.8319  97.1777 16.44430317176666
Source of the keplerian elements: AFSPC